Malaysia Virtual Airlines Airport Information Service

Kota Bharu

ICAO: WMKC Country: Malaysia
Latitude: 6.16685 Longitude: 102.293
Latest Arrival : MH1384 (WMKK-WMKC) Latest Departure : MH1385 (WMKC-WMKK)


WX CaptureLIVE
Data provided by noaa.gov | Fetched at 04:56:19

METAR : WMKC 290400Z 00000KT 9000 -RA FEW008 SCT020 25/24 Q1008

TAF : WMKC 282300Z 2900/3000 21005KT 7000 -RA FEW008 SCT020


Runway Data for WMKC
Data provided by openaviationdata.com

Runway ID Mag Var Hdg Length Elevation Surface ILS Freq ILS Id ILS Slope
10 1 100° 6499 ft 16 ft Asphalt -- -- --
28 1 280° 6499 ft 16 ft Asphalt -- -- --

Kota Bharu, Malaysia
Use only for reference purposes



Not for navigational purposes.